IRIDIUM 63

Satellite information

Favourite Embed

Satellite Type and Status

PAYLOADIN ORBIT

Key statistics

Satellite IRIDIUM 63 at a glance.

Uptime

10056

Days in orbit

Revolutions

≈ 14.4

Per day

Orbit

LEO

Low Earth Orbit

Inclination

86.4

Latest

Satellite identification and parameters

Extended collection of information and parameters for IRIDIUM 63.

Object identification

Identified? True

Debris? False

Object name: IRIDIUM 63

International designator: 1998-021B

Object number (NORAD): 25286

Object ID (CCSDS): 25286

Country: UNITED STATES OF AMERICA (US)

Current information (Y/N): Y

RCS size: LARGE

Orbital parameters

Period: 100.232 minutes

Inclination: 86.4023 deg

SMA: 7147.676 km

Apoapsis: 770.934 km

Periapsis: 768.148 km

RAAN: 30.5956 deg

Eccentricy: 0.00019486

Argument of periapsis: 96.9701 deg

Mean anomaly: 263.1717 deg

Mean motion: 14.36664795 rev/day

Mean motion (dot): 0.00000709 rev/day2

B* drag term: 0.00023446924 1/REarth

Two-line elements (TLE)

Creation date: Oct. 18, 2025, 2:17 a.m.

Reference frame: TEME

Reference center: EARTH

Epoch: Oct. 17, 2025, 11:28 p.m. UTC

TLE line 0: 0 IRIDIUM 63

TLE line 1: 1 25286U 98021B 25290.97838934 .00000709 00000-0 23447-3 0 9991

TLE line 2: 2 25286 86.4023 30.5956 0001949 96.9701 263.1717 14.36664795441479

Live tracking on map

Real-time ground track for satellite IRIDIUM 63.

In-orbit conjunctions

A list of the most updated potential collisions computed for object IRIDIUM 63.

Target Orbit TCA Probability of collision Miss distance Type
COSMOS 1275 DEB LEO 2025-10-01 19:59:02 0.0001033516 403.0 (m) DEBRIS
FENGYUN 1C DEB SSO 2025-07-01 04:00:16 0.0006950139 178.0 (m) DEBRIS
COSMOS 1110 LEO 2025-06-29 16:52:40 0.0001229858 445.0 (m) PAYLOAD
NOAA 16 DEB SSO 2025-06-04 20:42:57 0.0003980054 100.0 (m) DEBRIS
CZ-6A DEB SSO 2025-03-06 00:54:24 0.0002777574 268.0 (m) DEBRIS

Associated space launch

Iridium provides global mobile telecommunications services using a constellation of 66 low earth orbit satellites in a 86.4° inclined orbit. Although 77 satellites were originally envisioned for the system and spawned the name based on the 77th element in the periodic table, the system has been scaled back. Motorola's Satellite Communications Group designed and manufactured the Iridium satellites with Lockheed Martin providing the LM-700A spacecraft buses.

IRIDIUM 63 was lifted into orbit during the mission ‘Proton-K/17S40 | Iridium 62 to 68’, on board a Proton-K/17S40 space rocket.

The launch took place on April 7, 1998, 2:13 a.m. from 81/23 (81L).

For more information about the launch, click the button.

Launch to space Proton-K/17S40 | Iridium 62 to 68
Proton-K/17S40 | Iridium 62 to 68

Agency: N/A

Status: Launch Successful

Launch date: April 7, 1998, 2:13 a.m. UTC

Rocket: Proton-K/17S40

Launch pad: 81/23 (81L)

Location: Baikonur Cosmodrome, Republic of Kazakhstan

...

Latest news about this satellite

There are no fresh news available about this satellite. Check back as we update our databases every day.


Newsletter sign-up

Weekly statistics, charts and insights to help you stay on top of the space industry.